Weather in Churiki

Russia / Ryazan Oblast     53°58′04″N   39°14′14″E
temp.,
°C
wind,
m/s
gust,
m/s
humid.,
%
clouds,
%
prec.,
mm/h
press.,
hPa
HPBL,
m
17 june, thu
thu1700:00+14n410900 0.0 1018208
03:00+12nne37830 0.0 1019108
06:00+13nne48840 0.0 1020204
09:00+18ne47670 0.0 1022454
12:00+21ne45592 0.0 10231220
15:00+22nne55560 0.0 10231414
18:00+21n36684 0.0 1023477
21:00+16ne48805 0.0 1025140
18 june, fri
fri1800:00+13ene38790 0.0 1026127
03:00+12ene33810 0.0 102736
06:00+14ene25830 0.0 1028146
09:00+19e45691 0.0 1028534
12:00+21e34591 0.0 10281323
15:00+22e34560 0.0 10271479
18:00+22e23680 0.0 10271128
21:00+16ese22805 0.0 102711
19 june, sat
sat1900:00+15se118520 0.0 102811
03:00+13s118832 0.0 102810
06:00+16s12860 0.0 102975
09:00+20sse22720 0.0 1028525
12:00+22sse33590 0.0 1027990
15:00+23sse33550 0.0 10261143
18:00+23sse22660 0.0 1025971
21:00+17sse22790 0.0 102511
20 june, sun
sun2000:00+15s22850 0.0 102611
03:00+14ssw11880 0.0 102610
06:00+16ssw11830 0.0 102651
09:00+21sse22690 0.0 1025485
12:00+24sse33590 0.0 1025937
15:00+25sse23550 0.0 10231110
18:00+24se22665 0.0 1022979
21:00+19se228253 0.0 102311
21 june, mon
mon2100:00+17sse228491 0.0 102311
03:00+16se2287100 0.0 102311
06:00+18e228494 0.0 102370
09:00+22ese3373100 0.0 1022420
12:00+25ese3465100 0.0 1022875
15:00+26se335923 0.0 10211243
18:00+26ese237167 0.0 1020262
21:00+21ese22825 0.0 102011